CZ-2C DEB

Satellite information

Favourite Embed

Satellite Type and Status

DEBRISIN ORBIT

Key statistics

Satellite CZ-2C DEB at a glance.

Uptime

7642

Days in orbit

Revolutions

≈ 14.5

Per day

Orbit

SSO

Sun Synchronous Orbit

Inclination

98.6

Latest

Satellite identification and parameters

Extended collection of information and parameters for CZ-2C DEB.

Object identification

Identified? True

Debris? True

Object name: CZ-2C DEB

International designator: 2004-046D

Object number (NORAD): 28482

Object ID (CCSDS): 28482

Country: PEOPLES REPUBLIC OF CHINA (PRC)

Current information (Y/N): Y

RCS size: SMALL

Orbital parameters

Period: 99.35 minutes

Inclination: 98.6436 deg

SMA: 7105.658 km

Apoapsis: 802.674 km

Periapsis: 652.373 km

RAAN: 8.8087 deg

Eccentricy: 0.01057619

Argument of periapsis: 210.0251 deg

Mean anomaly: 218.3152 deg

Mean motion: 14.49426734 rev/day

Mean motion (dot): 0.00011398 rev/day2

B* drag term: 0.0027820549 1/REarth

Two-line elements (TLE)

Creation date: Oct. 19, 2025, 10:30 a.m.

Reference frame: TEME

Reference center: EARTH

Epoch: Oct. 19, 2025, 4:14 a.m. UTC

TLE line 0: 0 CZ-2C DEB

TLE line 1: 1 28482U 04046D 25292.17674935 .00011398 00000-0 27821-2 0 9994

TLE line 2: 2 28482 98.6436 8.8087 0105762 210.0251 218.3152 14.49426734 93687

Live tracking on map

Real-time ground track for satellite CZ-2C DEB.

In-orbit conjunctions

A list of the most updated potential collisions computed for object CZ-2C DEB.

Target Orbit TCA Probability of collision Miss distance Type
SL-8 R/B LEO 2024-12-24 08:16:01 0.0005332773 67.0 (m) ROCKET BODY

Associated space launch

Remote Sensing Technology..

CZ-2C DEB was lifted into orbit during the mission ‘Long March 2C | Shiyan Weixing 2’, on board a Long March 2 space rocket.

The launch took place on Nov. 18, 2004, 10:45 a.m. from Launch Complex 3 (LC-3/LA-1).

For more information about the launch, click the button.

Launch to space Long March 2C | Shiyan Weixing 2
Long March 2C | Shiyan Weixing 2

Agency: N/A

Status: Launch Successful

Launch date: Nov. 18, 2004, 10:45 a.m. UTC

Rocket: Long March 2

Launch pad: Launch Complex 3 (LC-3/LA-1)

Location: Xichang Satellite Launch Center, People's Republic of China

...

Latest news about this satellite

There are no fresh news available about this satellite. Check back as we update our databases every day.


Newsletter sign-up

Weekly statistics, charts and insights to help you stay on top of the space industry.